Total_Precipitation_Accumulation
0.80 0.61 1.08 1.14 0.99 0.92 0.95 0.98 0.99 1.02 1.00 1.02 0.96 0.89 0.84 0.71 0.61 0.53 0.47 0.39 0.43 0.53 0.50 0.44 0.39 0.34 0.27 0.25 0.29 0.36 0.45 0.54 0.60 0.61 0.71 0.75 0.72 0.78 0.94 1.15 1.32 1.50 1.10
0.65 0.58 1.07 1.18 0.98 0.86 0.86 0.87 0.96 0.95 0.91 0.92 0.90 0.91 0.74 0.59 0.54 0.50 0.46 0.42 0.40 0.44 0.45 0.46 0.46 0.40 0.33 0.34 0.38 0.43 0.46 0.51 0.62 0.67 0.84 0.90 0.83 0.84 0.81 0.92 1.15 1.32 1.08
0.63 0.60 0.86 1.09 0.93 0.82 0.81 0.84 0.91 0.91 0.89 0.90 0.92 0.96 0.72 0.59 0.57 0.52 0.51 0.49 0.45 0.39 0.42 0.50 0.54 0.50 0.42 0.44 0.47 0.50 0.52 0.55 0.66 0.77 1.13 1.68 1.19 0.89 0.88 0.96 1.04 1.00 1.06
0.73 0.71 0.87 1.12 0.98 0.85 0.83 0.91 0.97 0.99 0.98 1.03 1.02 0.89 0.67 0.62 0.61 0.59 0.60 0.62 0.55 0.43 0.41 0.43 0.48 0.48 0.45 0.49 0.51 0.49 0.55 0.60 0.72 0.84 1.18 1.66 1.57 1.18 1.06 1.12 1.07 0.92 1.06
0.75 0.83 1.11 1.21 1.02 0.92 0.87 0.92 1.06 1.11 1.07 1.09 1.02 0.77 0.66 0.63 0.65 0.65 0.68 0.67 0.62 0.56 0.48 0.43 0.44 0.42 0.42 0.44 0.49 0.53 0.58 0.68 0.87 0.92 1.23 1.59 1.85 1.34 1.05 1.19 1.25 1.08 1.15
0.71 0.75 0.95 1.14 1.01 0.92 0.94 1.01 0.99 0.92 0.93 1.01 0.93 0.75 0.63 0.66 0.66 0.66 0.64 0.61 0.62 0.60 0.54 0.51 0.47 0.43 0.44 0.41 0.46 0.54 0.64 0.73 0.85 1.04 1.30 1.64 1.77 1.29 1.02 1.15 1.30 1.33 1.32
0.76 0.71 0.79 0.98 0.92 0.87 0.92 0.99 0.98 0.89 0.92 0.95 0.91 0.84 0.67 0.64 0.67 0.69 0.61 0.55 0.54 0.54 0.52 0.51 0.47 0.44 0.42 0.43 0.45 0.50 0.62 0.58 0.73 1.03 1.24 1.61 1.46 1.12 0.95 1.09 1.33 1.46 1.39
0.82 0.77 0.75 0.86 0.85 0.82 0.85 0.90 0.91 0.89 0.97 0.96 0.83 0.77 0.73 0.64 0.63 0.63 0.58 0.58 0.56 0.56 0.55 0.53 0.47 0.43 0.43 0.44 0.45 0.48 0.55 0.47 0.49 0.75 0.99 1.39 1.40 1.24 0.97 0.96 1.15 1.33 1.40
0.90 0.86 0.81 0.78 0.80 0.86 0.97 0.93 0.89 0.94 1.04 1.00 0.81 0.74 0.75 0.63 0.56 0.54 0.56 0.57 0.56 0.60 0.63 0.57 0.47 0.41 0.45 0.48 0.48 0.48 0.51 0.51 0.53 0.66 0.79 1.12 1.20 1.21 1.01 0.95 1.05 1.18 1.35
0.86 0.80 0.74 0.72 0.75 0.78 0.89 0.94 0.88 0.87 0.96 0.95 0.83 0.82 0.82 0.66 0.55 0.55 0.54 0.58 0.61 0.65 0.71 0.66 0.55 0.49 0.50 0.52 0.51 0.49 0.48 0.44 0.47 0.56 0.76 0.84 1.06 1.11 0.95 0.89 0.93 0.97 1.05
0.73 0.72 0.69 0.67 0.69 0.74 0.82 0.85 0.92 0.94 0.97 0.90 0.83 0.86 0.77 0.57 0.53 0.56 0.51 0.63 0.74 0.88 0.89 0.80 0.71 0.63 0.58 0.50 0.49 0.49 0.39 0.33 0.50 0.58 0.73 0.87 1.08 1.08 0.91 0.86 0.89 0.82 0.83
0.73 0.71 0.68 0.70 0.68 0.67 0.72 0.97 1.11 0.99 0.89 0.78 0.81 0.78 0.76 0.73 0.70 0.52 0.53 0.69 0.76 0.85 0.88 0.83 0.78 0.65 0.47 0.37 0.42 0.44 0.28 0.31 0.44 0.51 0.59 0.86 1.09 1.15 1.01 0.87 0.84 0.78 0.72
0.69 0.69 0.64 0.63 0.58 0.56 0.71 0.89 1.07 1.11 1.07 1.05 0.90 0.89 0.85 0.76 0.65 0.51 0.49 0.54 0.59 0.68 0.67 0.74 0.72 0.52 0.41 0.40 0.44 0.36 0.30 0.35 0.43 0.51 0.65 0.96 1.13 1.16 1.09 0.93 0.87 0.81 0.74
0.60 0.63 0.59 0.57 0.53 0.50 0.51 0.62 0.77 0.83 0.83 0.84 0.85 0.79 0.80 0.81 0.74 0.64 0.58 0.62 0.65 0.63 0.69 0.76 0.73 0.60 0.52 0.44 0.42 0.40 0.40 0.40 0.47 0.59 0.70 0.91 1.16 1.21 1.19 1.06 1.01 0.92 0.83
0.55 0.57 0.57 0.59 0.57 0.62 0.61 0.57 0.56 0.62 0.68 0.72 0.80 0.72 0.67 0.70 0.73 0.75 0.69 0.73 0.70 0.68 0.71 0.72 0.61 0.60 0.60 0.51 0.46 0.48 0.53 0.47 0.56 0.60 0.70 0.84 1.16 1.48 1.50 1.37 1.22 1.07 0.97
0.52 0.62 0.64 0.60 0.62 0.60 0.56 0.59 0.62 0.62 0.66 0.69 0.73 0.66 0.60 0.60 0.62 0.74 0.73 0.78 0.69 0.71 0.79 0.72 0.65 0.68 0.68 0.59 0.50 0.51 0.53 0.50 0.56 0.63 0.72 0.86 1.02 1.39 1.71 1.72 1.59 1.40 1.17
0.47 0.59 0.70 0.67 0.69 0.65 0.60 0.63 0.66 0.66 0.63 0.65 0.69 0.62 0.58 0.61 0.62 0.74 0.78 0.77 0.75 0.78 0.81 0.84 0.83 0.79 0.70 0.62 0.56 0.53 0.53 0.53 0.58 0.63 0.66 0.83 0.86 0.92 1.29 1.70 1.85 1.77 1.51
0.43 0.52 0.64 0.65 0.70 0.74 0.73 0.73 0.70 0.65 0.67 0.72 0.75 0.70 0.66 0.64 0.67 0.87 0.92 0.81 0.86 0.97 1.00 1.02 0.98 0.90 0.80 0.76 0.75 0.68 0.60 0.57 0.60 0.65 0.66 0.72 0.75 0.71 0.76 0.94 1.20 1.43 1.64
0.44 0.48 0.53 0.59 0.79 0.82 0.78 0.84 0.84 0.80 0.86 0.89 0.92 0.89 0.84 0.81 0.89 1.06 1.13 1.04 1.02 1.17 1.14 1.03 1.04 1.05 0.96 0.95 0.93 0.92 0.78 0.68 0.67 0.65 0.74 0.83 0.83 0.81 0.83 0.67 0.74 0.89 1.24
0.37 0.41 0.47 0.56 0.68 0.80 0.95 1.03 1.11 1.12 1.11 1.23 1.30 1.29 1.12 1.07 1.13 1.28 1.38 1.34 1.30 1.41 1.39 1.27 1.36 1.35 1.26 1.29 1.18 1.07 0.98 0.91 0.87 0.85 0.85 0.92 0.98 0.89 0.91 0.80 0.74 0.64 0.78
0.28 0.32 0.38 0.54 0.70 0.86 0.99 1.13 1.38 1.54 1.64 1.63 1.63 1.70 1.62 1.44 1.52 1.64 1.60 1.82 1.89 1.86 1.86 1.80 1.92 1.94 1.67 1.50 1.75 1.73 1.33 1.06 0.94 0.95 1.00 1.03 1.07 1.07 1.05 0.98 0.89 0.73 0.63
0.19 0.23 0.30 0.44 0.68 0.92 1.15 1.33 1.52 1.84 2.00 2.00 2.06 2.01 1.96 1.85 1.87 1.79 1.87 2.08 2.13 2.23 2.32 2.16 2.29 2.35 2.03 1.74 2.11 2.52 2.02 1.61 1.06 0.86 0.95 1.04 1.15 1.19 1.14 0.99 0.95 0.86 0.75
0.12 0.16 0.22 0.35 0.57 0.88 1.19 1.45 1.64 1.88 2.14 2.24 2.15 2.10 2.13 2.21 2.26 2.15 2.11 2.23 2.25 2.32 2.51 2.55 2.50 2.57 2.48 2.17 2.13 2.54 2.39 2.06 1.64 1.08 0.95 1.04 1.18 1.27 1.29 1.25 1.10 1.01 0.90
0.13 0.16 0.20 0.34 0.49 0.72 0.99 1.32 1.57 1.84 2.15 2.22 2.20 2.17 2.21 2.33 2.42 2.38 2.33 2.39 2.39 2.35 2.47 2.56 2.54 2.74 2.89 2.61 2.35 2.12 2.03 2.03 2.02 1.57 1.15 1.09 1.26 1.33 1.35 1.27 1.24 1.24 1.21
0.19 0.20 0.27 0.40 0.54 0.74 0.98 1.30 1.63 1.82 1.99 2.19 2.20 2.12 2.05 2.12 2.14 2.12 2.24 2.39 2.41 2.38 2.39 2.58 2.69 2.86 2.84 2.75 2.59 2.46 2.26 2.07 1.73 1.79 1.66 1.40 1.39 1.29 1.36 1.45 1.45 1.46 1.43
0.29 0.33 0.40 0.52 0.72 0.87 0.97 1.12 1.29 1.50 1.78 1.92 2.02 2.06 2.07 2.07 1.95 1.87 1.98 2.09 2.18 2.23 2.21 2.27 2.43 2.57 2.73 2.88 2.80 2.61 2.48 2.35 2.14 2.01 1.74 1.58 1.65 1.48 1.35 1.36 1.41 1.46 1.59